Flag for U.S.A. Weather past 2 weeks in Livonia, Michigan, U.S.A.

Now
60 °F

Partly sunny.


Feels Like: 60 °F
Forecast: 39 / 61 °F
Wind: 9 mph from Southwest

Location: Detroit Metropolitan Wayne County Airport

Current Time: Oct 24, 2014 at 3:11:33 PM

Latest Report: Oct 24, 2014 at 1:53 PM


Visibility: 10 mi

Pressure: 30.04 "Hg

Humidity: 53%

Dew point: 43 °F

Location of LivoniaLocation

Historic Weather in Livonia — Graph

°F

Livonia temperature yesterday

Maximum temperature yesterday: 59 °F (at 3:53 PM)
Minimum temperature yesterday: 36 °F (at 7:53 AM)
Average temperature yesterday: 46 °F

Past Weeks' High & Low Weather Summary

 TemperatureHumidityPressure
High70 °F (Oct 13, 4:53 PM)100% (Oct 13, 5:00 AM)30.35 "Hg (Oct 13, 5:00 AM)
Low32 °F (Oct 19, 7:53 AM)35% (Oct 11, 3:53 PM)29.52 "Hg (Oct 17, 2:53 PM)
Average52 °F75%29.98 "Hg
* Reported Oct 9 12:53 PM — Oct 24 12:53 PM, Livonia, Weather by CustomWeather, © 2014

Note: Actual official high and low records may vary slightly from our data, if they occured in-between our weather recording intervals... More about our weather records

Advertising

Livonia weather history for previous 24 hours

 ConditionsComfort  
Time TempWeatherWind HumidityBarometerVisibility
12:53 PM
Oct 24
59 °FPartly sunny.6 mph56%30.06 "Hg10 mi
11:53 AM55 °FPartly sunny.5 mph64%30.08 "Hg10 mi
10:53 AM52 °FScattered clouds.5 mph69%30.09 "Hg8 mi
9:53 AM44 °FScattered clouds.No wind82%30.10 "Hg6 mi
8:53 AM39 °FFog.No wind93%30.11 "Hg4 mi
7:53 AM38 °FFog.3 mph90%30.10 "Hg6 mi
6:53 AM38 °FPartly cloudy.3 mph90%30.10 "Hg7 mi
5:53 AM38 °FMostly cloudy.No wind90%30.10 "Hg7 mi
4:53 AM38 °FMostly cloudy.No wind90%30.09 "Hg8 mi
3:53 AM39 °FMostly cloudy.3 mph86%30.09 "Hg7 mi
2:53 AM40 °FMostly cloudy.No wind89%30.10 "Hg7 mi
1:53 AM41 °FMostly cloudy.No wind82%30.10 "Hg8 mi
12:53 AM42 °FPassing clouds.No wind82%30.10 "Hg9 mi
11:53 PM
Oct 23
42 °FPassing clouds.3 mph82%30.12 "Hg9 mi
10:53 PM45 °FPartly cloudy.No wind76%30.11 "Hg8 mi
9:53 PM46 °FPartly cloudy.No wind79%30.13 "Hg10 mi
8:53 PM46 °FPartly cloudy.5 mph79%30.13 "Hg10 mi
7:53 PM50 °FPassing clouds.5 mph74%30.12 "Hg10 mi
6:53 PM53 °FPartly sunny.3 mph61%30.14 "Hg10 mi
5:53 PM57 °FScattered clouds.5 mph49%30.14 "Hg10 mi
4:53 PM59 °FScattered clouds.No wind48%30.15 "Hg10 mi
3:53 PM59 °FPartly sunny.6 mph48%30.15 "Hg10 mi
Weather by CustomWeather, © 2014

See weather overviewHow to use our weather pages